Location: Biltmore Gardens
(41.6070°N, 83.4666°W)
Time: 14:12:39
(UTC+00:00)

Okean 3 - Pass Details

Date: 14 July 2020
Orbit: 576 x 601 km, 82.5° (Epoch: 04 August)

Event Time Altitude Azimuth Distance (km) Brightness Sun altitude
Rises 08:18:01 0° 340° (NNW) 2,802 7.4 -17.0°
Reaches altitude 10° 08:20:25 10° 329° (NNW) 1,901 6.3 -16.7°
Maximum altitude 08:24:00 28° 270° (W) 1,099 4.5 -16.3°
Enters shadow 08:24:46 26° 250° (WSW) 1,146 4.4 -16.2°
